Time,TemperatureF,DewpointF,PressureIn,WindDirection,WindDirectionDegrees,WindSpeedMPH,WindSpeedGustMPH,Humidity,HourlyPrecipIn,Conditions,Clouds,dailyrainin,SolarRadiationWatts/m^2,SoftwareType,DateUTC
2013-04-02 00:23:00,59.0,59.0,-100.00,NE,43,2.0,4.0,100,0.00,,,0.02,0.000000,,2013-04-02 10:23:00,
2013-04-02 00:33:00,59.0,59.0,-100.00,NE,43,2.0,4.0,100,0.00,,,0.02,0.000000,,2013-04-02 10:33:00,
2013-04-02 00:42:00,59.0,59.0,-100.00,NE,43,2.0,4.0,100,0.00,,,0.02,0.000000,,2013-04-02 10:42:00,
2013-04-02 00:52:00,59.0,59.0,-100.00,NE,43,2.0,4.0,100,0.00,,,0.02,0.000000,,2013-04-02 10:52:00,
2013-04-02 01:22:00,59.0,59.0,-100.00,WSW,256,3.0,5.0,99,0.00,,,0.02,0.000000,,2013-04-02 11:22:00,
2013-04-02 01:32:00,59.0,59.0,-100.00,WSW,256,3.0,5.0,99,0.00,,,0.02,0.000000,,2013-04-02 11:32:00,
2013-04-02 01:42:00,59.0,59.0,-100.00,WSW,256,3.0,5.0,99,0.00,,,0.02,0.000000,,2013-04-02 11:42:00,
2013-04-02 01:52:00,59.0,59.0,-100.00,WSW,256,3.0,5.0,99,0.00,,,0.02,0.000000,,2013-04-02 11:52:00,
2013-04-02 02:32:00,57.0,56.0,-100.00,NE,40,2.0,6.0,98,0.00,,,0.02,0.000000,,2013-04-02 12:32:00,
2013-04-02 02:42:00,57.0,56.0,-100.00,NE,40,2.0,6.0,98,0.00,,,0.02,0.000000,,2013-04-02 12:42:00,
2013-04-02 02:52:00,57.0,56.0,-100.00,NE,40,2.0,6.0,98,0.00,,,0.02,0.000000,,2013-04-02 12:52:00,
2013-04-02 03:22:00,56.0,56.0,-100.00,NNE,31,4.0,6.0,100,0.00,,,0.02,0.000000,,2013-04-02 13:22:00,
2013-04-02 03:32:00,56.0,56.0,-100.00,NNE,31,4.0,6.0,100,0.00,,,0.02,0.000000,,2013-04-02 13:32:00,
2013-04-02 03:42:00,56.0,56.0,-100.00,NNE,31,4.0,6.0,100,0.00,,,0.02,0.000000,,2013-04-02 13:42:00,
2013-04-02 03:52:00,56.0,56.0,-100.00,NNE,31,4.0,6.0,100,0.00,,,0.02,0.000000,,2013-04-02 13:52:00,
2013-04-02 04:22:00,55.0,55.0,-100.00,NNE,28,4.0,6.0,100,0.00,,,0.02,0.000000,,2013-04-02 14:22:00,
2013-04-02 04:32:00,55.0,55.0,-100.00,NNE,28,4.0,6.0,100,0.00,,,0.02,0.000000,,2013-04-02 14:32:00,
2013-04-02 04:42:00,55.0,55.0,-100.00,NNE,28,4.0,6.0,100,0.00,,,0.02,0.000000,,2013-04-02 14:42:00,
2013-04-02 04:52:00,55.0,55.0,-100.00,NNE,28,4.0,6.0,100,0.00,,,0.02,0.000000,,2013-04-02 14:52:00,
2013-04-02 05:22:00,56.0,56.0,-100.00,NE,36,4.0,6.0,100,0.00,,,0.02,0.000000,,2013-04-02 15:22:00,
2013-04-02 05:33:00,56.0,56.0,-100.00,NE,36,4.0,6.0,100,0.00,,,0.02,0.000000,,2013-04-02 15:33:00,
2013-04-02 05:42:00,56.0,56.0,-100.00,NE,36,4.0,6.0,100,0.00,,,0.02,0.000000,,2013-04-02 15:42:00,
2013-04-02 05:54:00,56.0,56.0,-100.00,NE,36,4.0,6.0,100,0.00,,,0.02,0.000000,,2013-04-02 15:54:00,
2013-04-02 06:24:00,55.0,54.0,-100.00,NNE,15,5.0,9.0,98,0.00,,,0.02,0.000000,,2013-04-02 16:24:00,
2013-04-02 06:34:00,55.0,54.0,-100.00,NNE,15,5.0,9.0,98,0.00,,,0.02,0.000000,,2013-04-02 16:34:00,
2013-04-02 06:43:00,55.0,54.0,-100.00,NNE,15,5.0,9.0,98,0.00,,,0.02,0.000000,,2013-04-02 16:43:00,
2013-04-02 06:52:00,55.0,54.0,-100.00,NNE,15,5.0,9.0,98,0.00,,,0.02,0.000000,,2013-04-02 16:52:00,
2013-04-02 07:24:00,57.0,55.0,-100.00,NNE,26,5.0,10.0,94,0.00,,,-99.99,13.000000,,2013-04-02 17:24:00,
2013-04-02 07:34:00,57.0,55.0,-100.00,NNE,26,5.0,10.0,94,0.00,,,-99.99,13.000000,,2013-04-02 17:34:00,
2013-04-02 07:43:00,57.0,55.0,-100.00,NNE,26,5.0,10.0,94,0.00,,,-99.99,13.000000,,2013-04-02 17:43:00,
2013-04-02 07:53:00,57.0,55.0,-100.00,NNE,26,5.0,10.0,94,0.00,,,-99.99,13.000000,,2013-04-02 17:53:00,
2013-04-02 08:23:00,64.0,57.0,-100.00,NNE,26,5.0,13.0,77,0.00,,,0.02,201.000000,,2013-04-02 18:23:00,
2013-04-02 08:33:00,64.0,57.0,-100.00,NNE,26,5.0,13.0,77,0.00,,,0.02,201.000000,,2013-04-02 18:33:00,
2013-04-02 08:42:00,64.0,57.0,-100.00,NNE,26,5.0,13.0,77,0.00,,,0.02,201.000000,,2013-04-02 18:42:00,
2013-04-02 08:53:00,64.0,57.0,-100.00,NNE,26,5.0,13.0,77,0.00,,,0.02,201.000000,,2013-04-02 18:53:00,
2013-04-02 09:22:00,65.0,55.0,-100.00,NNE,15,6.0,17.0,70,0.00,,,0.02,348.000000,,2013-04-02 19:22:00,
2013-04-02 09:33:00,65.0,55.0,-100.00,NNE,15,6.0,17.0,70,0.00,,,0.02,348.000000,,2013-04-02 19:33:00,
2013-04-02 09:44:00,65.0,55.0,-100.00,NNE,15,6.0,17.0,70,0.00,,,0.02,348.000000,,2013-04-02 19:44:00,
2013-04-02 09:52:00,65.0,55.0,-100.00,NNE,15,6.0,17.0,70,0.00,,,0.02,348.000000,,2013-04-02 19:52:00,
2013-04-02 10:22:00,68.0,54.0,-100.00,NNE,29,6.0,15.0,61,0.00,,,0.02,648.000000,,2013-04-02 20:22:00,
2013-04-02 10:33:00,68.0,54.0,-100.00,NNE,29,6.0,15.0,61,0.00,,,0.02,648.000000,,2013-04-02 20:33:00,
2013-04-02 10:52:00,68.0,54.0,-100.00,NNE,29,6.0,15.0,61,0.00,,,0.02,648.000000,,2013-04-02 20:52:00,
2013-04-02 11:23:00,69.0,54.0,-100.00,North,356,5.0,14.0,59,0.00,,,0.01,525.000000,,2013-04-02 21:23:00,
2013-04-02 11:34:00,69.0,54.0,-100.00,North,356,5.0,14.0,59,0.00,,,0.01,525.000000,,2013-04-02 21:34:00,
2013-04-02 11:43:00,69.0,54.0,-100.00,North,356,5.0,14.0,59,0.00,,,0.01,525.000000,,2013-04-02 21:43:00,
2013-04-02 11:54:00,69.0,54.0,-100.00,North,356,5.0,14.0,59,0.00,,,0.01,525.000000,,2013-04-02 21:54:00,
2013-04-02 12:23:00,71.0,54.0,-100.00,North,357,5.0,13.0,55,0.00,,,0.01,634.000000,,2013-04-02 22:23:00,
2013-04-02 12:33:00,71.0,54.0,-100.00,North,357,5.0,13.0,55,0.00,,,0.01,634.000000,,2013-04-02 22:33:00,
2013-04-02 12:43:00,71.0,54.0,-100.00,North,357,5.0,13.0,55,0.00,,,0.01,634.000000,,2013-04-02 22:43:00,
2013-04-02 12:53:00,71.0,54.0,-100.00,North,357,5.0,13.0,55,0.00,,,0.01,634.000000,,2013-04-02 22:53:00,
2013-04-02 13:23:00,72.0,54.0,-100.00,NNW,329,5.0,15.0,54,0.00,,,0.01,703.000000,,2013-04-02 23:23:00,
2013-04-02 13:33:00,72.0,54.0,-100.00,NNW,329,5.0,15.0,54,0.00,,,0.01,703.000000,,2013-04-02 23:33:00,
2013-04-02 13:42:00,72.0,54.0,-100.00,NNW,329,5.0,15.0,54,0.00,,,0.01,703.000000,,2013-04-02 23:42:00,
2013-04-02 13:52:00,72.0,54.0,-100.00,NNW,329,5.0,15.0,54,0.00,,,0.01,703.000000,,2013-04-02 23:52:00,
2013-04-02 14:23:00,72.0,53.0,-100.00,NNW,343,4.0,13.0,51,0.00,,,0.01,572.000000,,2013-04-03 00:23:00,
2013-04-02 14:32:00,72.0,53.0,-100.00,NNW,343,4.0,13.0,51,0.00,,,0.01,572.000000,,2013-04-03 00:32:00,
2013-04-02 14:44:00,72.0,53.0,-100.00,NNW,343,4.0,13.0,51,0.00,,,0.01,572.000000,,2013-04-03 00:44:00,
2013-04-02 14:53:00,72.0,53.0,-100.00,NNW,343,4.0,13.0,51,0.00,,,0.01,572.000000,,2013-04-03 00:53:00,
2013-04-02 15:33:00,74.0,55.0,-100.00,NNW,347,7.0,16.0,52,0.00,,,0.01,1009.000000,,2013-04-03 01:33:00,
2013-04-02 15:42:00,74.0,55.0,-100.00,NNW,347,7.0,16.0,52,0.00,,,0.01,1009.000000,,2013-04-03 01:42:00,
2013-04-02 15:52:00,74.0,55.0,-100.00,NNW,347,7.0,16.0,52,0.00,,,0.01,1009.000000,,2013-04-03 01:52:00,
2013-04-02 16:23:00,68.0,53.0,-100.00,ENE,63,6.0,18.0,58,0.00,,,0.01,757.000000,,2013-04-03 02:23:00,
2013-04-02 16:33:00,68.0,53.0,-100.00,ENE,63,6.0,18.0,58,0.00,,,0.01,757.000000,,2013-04-03 02:33:00,
2013-04-02 16:43:00,68.0,53.0,-100.00,ENE,63,6.0,18.0,58,0.00,,,0.01,757.000000,,2013-04-03 02:43:00,
2013-04-02 16:52:00,68.0,53.0,-100.00,ENE,63,6.0,18.0,58,0.00,,,0.01,757.000000,,2013-04-03 02:52:00,
2013-04-02 17:22:00,71.0,51.0,-100.00,NNE,26,5.0,12.0,50,0.00,,,0.01,412.000000,,2013-04-03 03:22:00,
2013-04-02 17:35:00,71.0,51.0,-100.00,NNE,26,5.0,12.0,50,0.00,,,0.01,412.000000,,2013-04-03 03:35:00,
2013-04-02 17:43:00,71.0,51.0,-100.00,NNE,26,5.0,12.0,50,0.00,,,0.01,412.000000,,2013-04-03 03:43:00,
2013-04-02 17:53:00,71.0,51.0,-100.00,NNE,26,5.0,12.0,50,0.00,,,0.01,412.000000,,2013-04-03 03:53:00,
2013-04-02 18:23:00,66.0,50.0,-100.00,NNE,24,7.0,15.0,57,0.00,,,0.00,292.000000,,2013-04-03 04:23:00,
2013-04-02 18:32:00,66.0,50.0,-100.00,NNE,24,7.0,15.0,57,0.00,,,0.00,292.000000,,2013-04-03 04:32:00,
2013-04-02 18:42:00,66.0,50.0,-100.00,NNE,24,7.0,15.0,57,0.00,,,0.00,292.000000,,2013-04-03 04:42:00,
2013-04-02 18:53:00,66.0,50.0,-100.00,NNE,24,7.0,15.0,57,0.00,,,0.00,292.000000,,2013-04-03 04:53:00,
2013-04-02 19:22:00,61.0,54.0,-100.00,NNE,19,4.0,11.0,78,0.00,,,0.00,46.000000,,2013-04-03 05:22:00,
2013-04-02 19:32:00,61.0,54.0,-100.00,NNE,19,4.0,11.0,78,0.00,,,0.00,46.000000,,2013-04-03 05:32:00,
2013-04-02 19:42:00,61.0,54.0,-100.00,NNE,19,4.0,11.0,78,0.00,,,0.00,46.000000,,2013-04-03 05:42:00,
2013-04-02 19:52:00,61.0,54.0,-100.00,NNE,19,4.0,11.0,78,0.00,,,0.00,46.000000,,2013-04-03 05:52:00,
2013-04-02 20:22:00,59.0,55.0,-100.00,NNE,12,3.0,9.0,88,0.00,,,0.00,0.000000,,2013-04-03 06:22:00,
2013-04-02 20:32:00,59.0,55.0,-100.00,NNE,12,3.0,9.0,88,0.00,,,0.00,0.000000,,2013-04-03 06:32:00,
2013-04-02 20:42:00,59.0,55.0,-100.00,NNE,12,3.0,9.0,88,0.00,,,0.00,0.000000,,2013-04-03 06:42:00,
2013-04-02 20:52:00,59.0,55.0,-100.00,NNE,12,3.0,9.0,88,0.00,,,0.00,0.000000,,2013-04-03 06:52:00,
2013-04-02 21:23:00,57.0,56.0,-100.00,North,354,2.0,8.0,97,0.00,,,0.00,0.000000,,2013-04-03 07:23:00,
2013-04-02 21:32:00,57.0,56.0,-100.00,North,354,2.0,8.0,97,0.00,,,0.00,0.000000,,2013-04-03 07:32:00,
2013-04-02 21:42:00,57.0,56.0,-100.00,North,354,2.0,8.0,97,0.00,,,0.00,0.000000,,2013-04-03 07:42:00,
2013-04-02 21:52:00,57.0,56.0,-100.00,North,354,2.0,8.0,97,0.00,,,0.00,0.000000,,2013-04-03 07:52:00,
2013-04-02 22:22:00,55.0,55.0,-100.00,NNE,28,2.0,6.0,100,0.00,,,0.00,0.000000,,2013-04-03 08:22:00,
2013-04-02 22:32:00,55.0,55.0,-100.00,NNE,28,2.0,6.0,100,0.00,,,0.00,0.000000,,2013-04-03 08:32:00,
2013-04-02 22:42:00,55.0,55.0,-100.00,NNE,28,2.0,6.0,100,0.00,,,0.00,0.000000,,2013-04-03 08:42:00,
2013-04-02 22:52:00,55.0,55.0,-100.00,NNE,28,2.0,6.0,100,0.00,,,0.00,0.000000,,2013-04-03 08:52:00,
2013-04-02 23:22:00,55.0,55.0,-100.00,NNE,21,3.0,4.0,100,0.00,,,-99.99,0.000000,,2013-04-03 09:22:00,
2013-04-02 23:33:00,55.0,55.0,-100.00,NNE,21,3.0,4.0,100,0.00,,,-99.99,0.000000,,2013-04-03 09:33:00,
2013-04-02 23:43:00,55.0,55.0,-100.00,NNE,21,3.0,4.0,100,0.00,,,-99.99,0.000000,,2013-04-03 09:43:00,
2013-04-02 23:52:00,55.0,55.0,-100.00,NNE,21,3.0,4.0,100,0.00,,,-99.99,0.000000,,2013-04-03 09:52:00,